TimeMDT,TemperatureF,Dew PointF,Humidity,Sea Level PressureIn,VisibilityMPH,Wind Direction,Wind SpeedMPH,Gust SpeedMPH,PrecipitationIn,Events,Conditions,WindDirDegrees,DateUTC
12:15 AM,35.6,19.4,52,30.14,10.0,Calm,Calm,-,N/A,,Clear,0,2014-03-29 06:15:00
12:36 AM,35.6,17.6,48,30.14,10.0,Calm,Calm,-,N/A,,Clear,0,2014-03-29 06:36:00
12:56 AM,35.6,21.2,56,30.14,10.0,Calm,Calm,-,N/A,,Clear,0,2014-03-29 06:56:00
1:16 AM,33.8,17.6,52,30.14,10.0,Calm,Calm,-,N/A,,Clear,0,2014-03-29 07:16:00
1:36 AM,32.0,17.6,55,30.14,10.0,NNE,5.8,-,N/A,,Clear,30,2014-03-29 07:36:00
1:56 AM,32.0,19.4,60,30.14,10.0,East,3.5,-,N/A,,Clear,100,2014-03-29 07:56:00
2:16 AM,33.8,19.4,56,30.14,10.0,North,3.5,-,N/A,,Clear,350,2014-03-29 08:16:00
2:35 AM,33.8,21.2,60,30.15,10.0,Calm,Calm,-,N/A,,Clear,0,2014-03-29 08:35:00
2:56 AM,32.0,19.4,60,30.14,10.0,Calm,Calm,-,N/A,,Clear,0,2014-03-29 08:56:00
3:16 AM,33.8,19.4,56,30.14,10.0,Calm,Calm,-,N/A,,Clear,0,2014-03-29 09:16:00
3:36 AM,33.8,19.4,56,30.13,10.0,Calm,Calm,-,N/A,,Clear,0,2014-03-29 09:36:00
3:53 AM,33.8,19.4,56,30.12,10.0,WSW,3.5,-,N/A,,Clear,240,2014-03-29 09:53:00
4:16 AM,32.0,17.6,55,30.10,10.0,Calm,Calm,-,N/A,,Clear,0,2014-03-29 10:16:00
4:36 AM,32.0,21.2,64,30.10,10.0,Calm,Calm,-,N/A,,Clear,0,2014-03-29 10:36:00
4:55 AM,32.0,19.4,60,30.10,10.0,Calm,Calm,-,N/A,,Clear,0,2014-03-29 10:55:00
5:16 AM,33.8,21.2,60,30.11,10.0,Calm,Calm,-,N/A,,Clear,0,2014-03-29 11:16:00
5:36 AM,32.0,21.2,64,30.10,10.0,ENE,3.5,-,N/A,,Clear,60,2014-03-29 11:36:00
5:56 AM,32.0,19.4,60,30.10,10.0,ENE,5.8,-,N/A,,Clear,60,2014-03-29 11:56:00
6:16 AM,32.0,19.4,60,30.10,10.0,NNW,3.5,-,N/A,,Clear,330,2014-03-29 12:16:00
6:36 AM,32.0,19.4,60,30.11,10.0,Calm,Calm,-,N/A,,Clear,0,2014-03-29 12:36:00
6:56 AM,32.0,19.4,60,30.10,10.0,Calm,Calm,-,N/A,,Clear,0,2014-03-29 12:56:00
7:15 AM,35.6,19.4,52,30.10,10.0,ESE,5.8,-,N/A,,Clear,110,2014-03-29 13:15:00
7:35 AM,32.0,21.2,64,30.10,10.0,NNE,3.5,-,N/A,,Clear,30,2014-03-29 13:35:00
7:55 AM,32.0,21.2,64,30.10,10.0,NNW,3.5,-,N/A,,Clear,330,2014-03-29 13:55:00
8:16 AM,33.8,21.2,60,30.10,10.0,North,6.9,-,N/A,,Clear,360,2014-03-29 14:16:00
8:36 AM,33.8,23.0,65,30.10,10.0,North,5.8,-,N/A,,Clear,360,2014-03-29 14:36:00
8:55 AM,33.8,23.0,65,30.09,10.0,NNW,4.6,-,N/A,,Clear,330,2014-03-29 14:55:00
9:16 AM,33.8,23.0,65,30.09,10.0,Calm,Calm,-,N/A,,Clear,0,2014-03-29 15:16:00
9:36 AM,35.6,21.2,56,30.09,10.0,Calm,Calm,-,N/A,,Clear,0,2014-03-29 15:36:00
9:56 AM,35.6,23.0,60,30.09,10.0,Calm,Calm,-,N/A,,Clear,0,2014-03-29 15:56:00
10:16 AM,37.4,23.0,56,30.08,10.0,Calm,Calm,-,N/A,,Clear,0,2014-03-29 16:16:00
10:36 AM,41.0,23.0,49,30.07,10.0,Calm,Calm,-,N/A,,Clear,0,2014-03-29 16:36:00
10:55 AM,44.6,23.0,43,30.06,10.0,Calm,Calm,-,N/A,,Clear,0,2014-03-29 16:55:00
11:16 AM,50.0,26.6,40,30.05,10.0,SE,5.8,-,N/A,,Clear,140,2014-03-29 17:16:00
11:36 AM,53.6,23.0,30,30.05,10.0,East,4.6,-,N/A,,Clear,100,2014-03-29 17:36:00
11:56 AM,55.4,21.2,26,30.03,10.0,East,4.6,-,N/A,,Clear,90,2014-03-29 17:56:00
12:16 PM,59.0,14.0,17,30.03,10.0,Calm,Calm,-,N/A,,Clear,0,2014-03-29 18:16:00
12:36 PM,60.8,12.2,15,30.01,10.0,East,6.9,-,N/A,,Clear,80,2014-03-29 18:36:00
12:56 PM,62.6,14.0,15,30.00,10.0,ENE,5.8,-,N/A,,Clear,70,2014-03-29 18:56:00
1:16 PM,62.6,15.8,16,29.99,10.0,NNE,8.1,-,N/A,,Clear,30,2014-03-29 19:16:00
1:36 PM,62.6,14.0,15,29.98,10.0,ENE,4.6,-,N/A,,Clear,70,2014-03-29 19:36:00
1:56 PM,62.6,15.8,16,29.97,10.0,ENE,8.1,-,N/A,,Clear,60,2014-03-29 19:56:00
2:16 PM,62.6,14.0,15,29.96,10.0,WSW,3.5,-,N/A,,Clear,250,2014-03-29 20:16:00
2:36 PM,62.6,14.0,15,29.94,10.0,WSW,9.2,16.1,N/A,,Clear,240,2014-03-29 20:36:00
2:56 PM,64.4,14.0,14,29.94,10.0,West,6.9,-,N/A,,Clear,280,2014-03-29 20:56:00
3:16 PM,64.4,14.0,14,29.93,10.0,NW,6.9,-,N/A,,Clear,320,2014-03-29 21:16:00
3:35 PM,64.4,14.0,14,29.93,10.0,SW,10.4,17.3,N/A,,Clear,230,2014-03-29 21:35:00
3:56 PM,66.2,15.8,14,29.93,10.0,South,13.8,23.0,N/A,,Clear,190,2014-03-29 21:56:00
4:16 PM,66.2,14.0,13,29.93,10.0,SSW,18.4,25.3,N/A,,Clear,200,2014-03-29 22:16:00
4:36 PM,64.4,15.8,15,29.92,10.0,SW,17.3,25.3,N/A,,Clear,220,2014-03-29 22:36:00
4:56 PM,64.4,15.8,15,29.91,10.0,SSW,17.3,20.7,N/A,,Clear,210,2014-03-29 22:56:00
5:16 PM,64.4,15.8,15,29.91,10.0,SSW,15.0,25.3,N/A,,Clear,200,2014-03-29 23:16:00
5:36 PM,64.4,14.0,14,29.91,10.0,SSW,18.4,26.5,N/A,,Clear,210,2014-03-29 23:36:00
5:55 PM,62.6,12.2,14,29.91,10.0,SW,16.1,27.6,N/A,,Clear,230,2014-03-29 23:55:00
6:15 PM,60.8,14.0,16,29.92,10.0,SSW,11.5,23.0,N/A,,Clear,200,2014-03-30 00:15:00
6:36 PM,60.8,14.0,16,29.92,10.0,SSW,16.1,23.0,N/A,,Clear,200,2014-03-30 00:36:00
6:56 PM,59.0,14.0,17,29.91,10.0,SSW,12.7,17.3,N/A,,Clear,200,2014-03-30 00:56:00
7:16 PM,59.0,14.0,17,29.91,10.0,South,11.5,17.3,N/A,,Clear,190,2014-03-30 01:16:00
7:36 PM,59.0,14.0,17,29.91,10.0,SSW,11.5,25.3,N/A,,Clear,210,2014-03-30 01:36:00
7:56 PM,59.0,14.0,17,29.93,10.0,SSW,9.2,20.7,N/A,,Clear,210,2014-03-30 01:56:00
8:16 PM,59.0,14.0,17,29.93,10.0,SSW,10.4,21.9,N/A,,Clear,200,2014-03-30 02:16:00
8:36 PM,59.0,14.0,17,29.93,10.0,SSW,8.1,-,N/A,,Clear,210,2014-03-30 02:36:00
8:56 PM,57.2,12.2,17,29.92,10.0,SSW,15.0,-,N/A,,Clear,210,2014-03-30 02:56:00
9:16 PM,55.4,14.0,20,29.93,10.0,North,3.5,-,N/A,,Clear,360,2014-03-30 03:16:00
9:36 PM,55.4,12.2,18,29.93,10.0,SSW,3.5,-,N/A,,Clear,200,2014-03-30 03:36:00
9:56 PM,55.4,12.2,18,29.93,10.0,ENE,3.5,-,N/A,,Clear,70,2014-03-30 03:56:00
10:16 PM,55.4,12.2,18,29.91,10.0,SSE,4.6,-,N/A,,Clear,160,2014-03-30 04:16:00
10:36 PM,55.4,12.2,18,29.91,10.0,South,5.8,-,N/A,,Clear,180,2014-03-30 04:36:00
10:56 PM,53.6,17.6,24,29.91,10.0,West,3.5,-,N/A,,Clear,280,2014-03-30 04:56:00
11:16 PM,53.6,14.0,21,29.90,10.0,SSW,3.5,-,N/A,,Clear,210,2014-03-30 05:16:00
11:36 PM,50.0,14.0,24,29.90,10.0,SW,4.6,-,N/A,,Clear,230,2014-03-30 05:36:00
11:56 PM,50.0,14.0,24,29.90,10.0,SSW,3.5,-,N/A,,Clear,200,2014-03-30 05:56:00